When you browse on this site, cookies collect data to enhance your experience and personalize the content and advertising you see.
Visit our Privacy Policy to learn more. By continuing to use the site, you agree to this use of cookies and data.
  • In Hungary
  • List of Countries
  • For 7 days
  • Water Temperature
  • Weather Map
  • News
  • Weather Widgets
  • user-avatar
    Login

    Hourly Weather Kutani

    Today, 23 January, Thursday

    Time Temperature Precipitation Wind Pressure Humidity
    00:00 -6°C° 0.1 mm 6 mps 736 mmHg 85%
    01:00 -6°C° 0.1 mm 6 mps 737 mmHg 82%
    02:00 -8°C° 0.1 mm 6 mps 738 mmHg 80%
    03:00 -8°C° 0.1 mm 6 mps 738 mmHg 77%
    04:00 -9°C° 0.1 mm 6 mps 739 mmHg 75%
    05:00 -9°C° 0.1 mm 6 mps 739 mmHg 73%
    06:00 -10°C° 0 mm 6 mps 740 mmHg 72%
    07:00 -10°C° 0 mm 6 mps 740 mmHg 72%
    08:00 -10°C° 0 mm 6 mps 741 mmHg 71%
    09:00 -10°C° 0 mm 6 mps 741 mmHg 69%
    10:00 -9°C° 0 mm 6 mps 741 mmHg 67%
    11:00 -9°C° 0 mm 6 mps 742 mmHg 66%
    12:00 -9°C° 0 mm 6 mps 742 mmHg 63%
    13:00 -9°C° 0 mm 6 mps 742 mmHg 61%
    14:00 -8°C° 0 mm 6 mps 743 mmHg 59%
    15:00 -8°C° 0 mm 5 mps 743 mmHg 61%
    16:00 -8°C° 0 mm 5 mps 743 mmHg 64%
    17:00 -8°C° 0 mm 4 mps 744 mmHg 66%
    18:00 -8°C° 0 mm 4 mps 744 mmHg 70%
    19:00 -7°C° 0 mm 3 mps 744 mmHg 74%
    20:00 -8°C° 0 mm 3 mps 744 mmHg 79%
    21:00 -7°C° 0 mm 3 mps 744 mmHg 81%
    22:00 -7°C° 0 mm 3 mps 744 mmHg 83%
    23:00 -6°C° 0 mm 2 mps 744 mmHg 85%

    Tomorrow, 24 January, Friday

    Time Temperature Precipitation Wind Pressure Humidity
    00:00 -7°C° 0 mm 3 mps 743 mmHg 85%
    01:00 -7°C° 0 mm 3 mps 743 mmHg 85%
    02:00 -6°C° 0 mm 3 mps 742 mmHg 85%
    03:00 -7°C° 0.1 mm 4 mps 741 mmHg 87%
    04:00 -5°C° 0.1 mm 4 mps 740 mmHg 90%
    05:00 -5°C° 0.1 mm 5 mps 739 mmHg 93%
    06:00 -5°C° 0.4 mm 5 mps 738 mmHg 93%
    07:00 -5°C° 0.4 mm 5 mps 738 mmHg 94%
    08:00 -5°C° 0.4 mm 6 mps 737 mmHg 95%
    09:00 -4°C° 0.4 mm 6 mps 736 mmHg 95%
    10:00 -3°C° 0.4 mm 6 mps 736 mmHg 95%
    11:00 -2°C° 0.4 mm 5 mps 735 mmHg 95%
    12:00 -1°C° 0.1 mm 5 mps 734 mmHg 95%
    13:00 -1°C° 0.1 mm 5 mps 734 mmHg 95%
    14:00 0°C° 0.1 mm 5 mps 733 mmHg 96%
    15:00 0°C° 0.2 mm 5 mps 733 mmHg 95%
    16:00 0°C° 0.2 mm 4 mps 733 mmHg 95%
    17:00 0°C° 0.2 mm 4 mps 732 mmHg 95%
    18:00 -1°C° 0 mm 4 mps 733 mmHg 92%
    19:00 -2°C° 0 mm 4 mps 733 mmHg 90%
    20:00 -2°C° 0 mm 4 mps 734 mmHg 87%
    21:00 -3°C° 0 mm 4 mps 734 mmHg 88%
    22:00 -3°C° 0 mm 4 mps 734 mmHg 89%
    23:00 -4°C° 0 mm 4 mps 734 mmHg 90%

    Day after tomorrow, 25 January, Saturday

    Time Temperature Precipitation Wind Pressure Humidity
    00:00 -4°C° 0 mm 5 mps 734 mmHg 88%
    01:00 -4°C° 0 mm 5 mps 734 mmHg 86%
    02:00 -2°C° 0 mm 5 mps 733 mmHg 84%
    03:00 -2°C° 0 mm 5 mps 733 mmHg 84%
    04:00 -4°C° 0 mm 5 mps 733 mmHg 83%
    05:00 -4°C° 0 mm 5 mps 733 mmHg 83%
    06:00 -4°C° 0 mm 5 mps 732 mmHg 83%
    07:00 -3°C° 0 mm 6 mps 732 mmHg 83%
    08:00 -3°C° 0 mm 6 mps 732 mmHg 82%
    09:00 -3°C° 0 mm 6 mps 731 mmHg 79%
    10:00 -3°C° 0 mm 6 mps 731 mmHg 75%
    11:00 -3°C° 0 mm 6 mps 731 mmHg 71%
    12:00 -3°C° 0 mm 6 mps 731 mmHg 71%
    13:00 -3°C° 0 mm 6 mps 731 mmHg 70%
    14:00 -4°C° 0 mm 6 mps 731 mmHg 70%
    15:00 -4°C° 0 mm 5 mps 731 mmHg 73%
    16:00 -5°C° 0 mm 5 mps 732 mmHg 77%
    17:00 -5°C° 0 mm 5 mps 732 mmHg 81%
    18:00 -5°C° 0 mm 5 mps 733 mmHg 82%
    19:00 -5°C° 0 mm 5 mps 733 mmHg 83%
    20:00 -5°C° 0 mm 6 mps 734 mmHg 84%
    21:00 -5°C° 0.1 mm 6 mps 734 mmHg 84%
    22:00 -6°C° 0.1 mm 6 mps 735 mmHg 84%
    23:00 -7°C° 0.1 mm 7 mps 736 mmHg 84%

    26 January, Sunday

    Time Temperature Precipitation Wind Pressure Humidity
    00:00 -6°C° 0.1 mm 6 mps 737 mmHg 84%
    01:00 -6°C° 0.1 mm 6 mps 737 mmHg 84%
    02:00 -6°C° 0.1 mm 6 mps 738 mmHg 85%
    03:00 -6°C° 0.1 mm 6 mps 739 mmHg 85%
    04:00 -6°C° 0.1 mm 5 mps 740 mmHg 86%
    05:00 -7°C° 0.1 mm 5 mps 741 mmHg 87%
    06:00 -7°C° 0.1 mm 5 mps 742 mmHg 86%
    07:00 -7°C° 0.1 mm 4 mps 743 mmHg 86%
    08:00 -8°C° 0.1 mm 4 mps 744 mmHg 85%
    09:00 -7°C° 0 mm 4 mps 745 mmHg 84%
    10:00 -7°C° 0 mm 4 mps 745 mmHg 82%
    11:00 -7°C° 0 mm 4 mps 746 mmHg 80%
    12:00 -7°C° 0 mm 4 mps 747 mmHg 80%
    13:00 -5°C° 0 mm 3 mps 747 mmHg 80%
    14:00 -5°C° 0 mm 3 mps 747 mmHg 80%
    15:00 -6°C° 0 mm 3 mps 747 mmHg 82%
    16:00 -6°C° 0 mm 3 mps 747 mmHg 84%
    17:00 -7°C° 0 mm 3 mps 748 mmHg 86%
    18:00 -7°C° 0 mm 3 mps 748 mmHg 87%
    19:00 -7°C° 0 mm 3 mps 748 mmHg 87%
    20:00 -7°C° 0 mm 3 mps 748 mmHg 88%
    21:00 -7°C° 0 mm 3 mps 748 mmHg 89%
    22:00 -6°C° 0 mm 2 mps 748 mmHg 89%
    23:00 -6°C° 0 mm 2 mps 748 mmHg 89%

    27 January, Monday

    Time Temperature Precipitation Wind Pressure Humidity
    00:00 -6°C° 0 mm 2 mps 748 mmHg 89%
    01:00 -5°C° 0 mm 2 mps 748 mmHg 89%
    02:00 -3°C° 0 mm 1 mps 748 mmHg 88%
    03:00 -5°C° 0.3 mm 2 mps 747 mmHg 91%
    04:00 -5°C° 0.3 mm 2 mps 747 mmHg 93%
    05:00 -4°C° 0.3 mm 2 mps 747 mmHg 96%
    06:00 -4°C° 0.5 mm 2 mps 746 mmHg 96%
    07:00 -4°C° 0.5 mm 2 mps 746 mmHg 96%
    08:00 -5°C° 0.5 mm 3 mps 746 mmHg 96%
    09:00 -4°C° 0.6 mm 3 mps 746 mmHg 97%
    10:00 -2°C° 0.6 mm 3 mps 746 mmHg 97%
    11:00 -1°C° 0.6 mm 3 mps 745 mmHg 97%
    12:00 -1°C° 0.3 mm 3 mps 745 mmHg 97%
    13:00 0°C° 0.3 mm 3 mps 745 mmHg 97%
    14:00 0°C° 0.3 mm 3 mps 744 mmHg 97%
    15:00 0°C° 0.2 mm 3 mps 744 mmHg 97%
    16:00 0°C° 0.2 mm 3 mps 744 mmHg 97%
    17:00 0°C° 0.2 mm 3 mps 744 mmHg 97%
    18:00 0°C° 0.3 mm 3 mps 743 mmHg 97%
    19:00 0°C° 0.3 mm 3 mps 743 mmHg 97%
    20:00 0°C° 0.3 mm 3 mps 743 mmHg 98%
    21:00 -1°C° 0.1 mm 3 mps 742 mmHg 98%
    22:00 -1°C° 0.1 mm 2 mps 742 mmHg 98%
    23:00 -1°C° 0.1 mm 2 mps 742 mmHg 98%

    28 January, Tuesday

    Time Temperature Precipitation Wind Pressure Humidity
    00:00 -1°C° 0.2 mm 2 mps 741 mmHg 98%
    01:00 -1°C° 0.2 mm 2 mps 741 mmHg 98%
    02:00 -1°C° 0.2 mm 2 mps 741 mmHg 98%
    03:00 -1°C° 0.2 mm 2 mps 741 mmHg 98%
    04:00 -1°C° 0.2 mm 2 mps 740 mmHg 98%
    05:00 +1°C° 0.2 mm 1 mps 740 mmHg 98%
    06:00 +1°C° 0.1 mm 1 mps 740 mmHg 98%
    07:00 +1°C° 0.1 mm 1 mps 740 mmHg 98%
    08:00 +1°C° 0.1 mm 1 mps 740 mmHg 98%
    09:00 +1°C° 0.1 mm 1 mps 740 mmHg 98%
    10:00 +1°C° 0.1 mm 1 mps 741 mmHg 98%
    11:00 +1°C° 0.1 mm 1 mps 741 mmHg 98%
    12:00 +1°C° 0 mm 1 mps 741 mmHg 98%
    13:00 +1°C° 0 mm 1 mps 741 mmHg 98%
    14:00 +1°C° 0 mm 1 mps 742 mmHg 98%
    15:00 +1°C° 0 mm 1 mps 742 mmHg 98%
    16:00 +1°C° 0 mm 1 mps 742 mmHg 98%
    17:00 +1°C° 0 mm 1 mps 743 mmHg 97%
    18:00 +1°C° 0 mm 1 mps 743 mmHg 97%
    19:00 -2°C° 0 mm 2 mps 743 mmHg 97%
    20:00 -2°C° 0 mm 2 mps 743 mmHg 97%
    21:00 -2°C° 0 mm 2 mps 743 mmHg 96%
    22:00 -2°C° 0 mm 2 mps 743 mmHg 96%
    23:00 -2°C° 0 mm 2 mps 743 mmHg 95%
    Show more